"Period start","avg(HW err(1)/warn(2) (#))","avg(Visibility (m))","avg(Weather code (#))","avg(Precip intensity (mm/h))","min(HW err(1)/warn(2) (#))","max(HW err(1)/warn(2) (#))","std(HW err(1)/warn(2) (#))","med(HW err(1)/warn(2) (#))","min(Visibility (m))","max(Visibility (m))","std(Visibility (m))","med(Visibility (m))","min(Weather code (#))","max(Weather code (#))","std(Weather code (#))","med(Weather code (#))","min(Precip intensity (mm/h))","max(Precip intensity (mm/h))","std(Precip intensity (mm/h))","med(Precip intensity (mm/h))"
2014-06-21 00:00:00,2,18732,10,0.00,2,2,0,2,5566,42924,11069,15972,10,10,0,10,0.00,0.00,0.00,0.00
2014-06-21 00:10:00,2,44104,1,0.00,2,2,0,2,31252,50000,7679,48864,0,10,3,0,0.00,0.00,0.00,0.00
2014-06-21 00:20:00,2,46575,0,0.00,2,2,0,2,37839,50000,4702,49672,0,0,0,0,0.00,0.00,0.00,0.00
2014-06-21 00:30:00,2,46034,0,0.00,2,2,0,2,36860,50000,4597,47286,0,0,0,0,0.00,0.00,0.00,0.00
2014-06-21 00:40:00,2,49933,0,0.00,2,2,0,2,49329,50000,201,50000,0,0,0,0,0.00,0.00,0.00,0.00
2014-06-21 00:50:00,2,49999,0,0.00,2,2,0,2,49991,50000,3,50000,0,0,0,0,0.00,0.00,0.00,0.00
2014-06-21 01:00:00,2,49159,0,0.00,2,2,0,2,42878,50000,2129,50000,0,0,0,0,0.00,0.00,0.00,0.00
2014-06-21 01:10:00,2,50000,0,0.00,2,2,0,2,50000,50000,0,50000,0,0,0,0,0.00,0.00,0.00,0.00
2014-06-21 01:20:00,2,48707,0,0.00,2,2,0,2,43110,50000,2108,49801,0,0,0,0,0.00,0.00,0.00,0.00
2014-06-21 01:30:00,2,49387,0,0.00,2,2,0,2,45777,50000,1331,50000,0,0,0,0,0.00,0.00,0.00,0.00
2014-06-21 01:40:00,2,50000,0,0.00,2,2,0,2,50000,50000,0,50000,0,0,0,0,0.00,0.00,0.00,0.00
2014-06-21 01:50:00,2,49901,0,0.00,2,2,0,2,49011,50000,297,50000,0,0,0,0,0.00,0.00,0.00,0.00
2014-06-21 02:00:00,2,50000,0,0.00,2,2,0,2,50000,50000,0,50000,0,0,0,0,0.00,0.00,0.00,0.00
2014-06-21 02:10:00,2,50000,0,0.00,2,2,0,2,50000,50000,0,50000,0,0,0,0,0.00,0.00,0.00,0.00
2014-06-21 02:20:00,2,50000,0,0.00,2,2,0,2,50000,50000,0,50000,0,0,0,0,0.00,0.00,0.00,0.00
2014-06-21 02:30:00,2,50000,0,0.00,2,2,0,2,50000,50000,0,50000,0,0,0,0,0.00,0.00,0.00,0.00
2014-06-21 02:40:00,2,49883,0,0.00,2,2,0,2,48829,50000,351,50000,0,0,0,0,0.00,0.00,0.00,0.00
2014-06-21 02:50:00,2,49767,0,0.00,2,2,0,2,47671,50000,699,50000,0,0,0,0,0.00,0.00,0.00,0.00
2014-06-21 03:00:00,2,49942,0,0.00,2,2,0,2,49417,50000,175,50000,0,0,0,0,0.00,0.00,0.00,0.00
2014-06-21 03:10:00,1,49792,0,0.00,0,2,1,0,48860,50000,395,50000,0,0,0,0,0.00,0.00,0.00,0.00
2014-06-21 03:20:00,1,48654,0,0.00,0,2,1,0,44733,50000,2082,50000,0,0,0,0,0.00,0.00,0.00,0.00
2014-06-21 03:30:00,0,49353,0,0.00,0,0,0,0,46994,50000,1007,49851,0,0,0,0,0.00,0.00,0.00,0.00
2014-06-21 03:40:00,1,47500,0,0.00,0,2,1,1,36325,50000,4123,49485,0,0,0,0,0.00,0.00,0.00,0.00
2014-06-21 03:50:00,0,45602,0,0.00,0,0,0,0,33364,50000,5954,49862,0,0,0,0,0.00,0.00,0.00,0.00
2014-06-21 04:00:00,1,42152,0,0.00,0,2,1,0,19852,50000,9296,45392,0,0,0,0,0.00,0.00,0.00,0.00
2014-06-21 04:10:00,0,46969,0,0.00,0,2,1,0,38634,50000,3636,48518,0,0,0,0,0.00,0.00,0.00,0.00
2014-06-21 04:20:00,0,50000,0,0.00,0,0,0,0,50000,50000,0,50000,0,0,0,0,0.00,0.00,0.00,0.00
2014-06-21 04:30:00,0,47450,0,0.00,0,0,0,0,36281,50000,4224,49584,0,0,0,0,0.00,0.00,0.00,0.00
2014-06-21 04:40:00,0,49632,0,0.00,0,0,0,0,48290,50000,645,50000,0,0,0,0,0.00,0.00,0.00,0.00
2014-06-21 04:50:00,0,49816,0,0.00,0,0,0,0,48161,50000,552,50000,0,0,0,0,0.00,0.00,0.00,0.00
2014-06-21 05:00:00,0,48388,0,0.00,0,0,0,0,44755,50000,1875,49024,0,0,0,0,0.00,0.00,0.00,0.00
2014-06-21 05:10:00,0,47774,0,0.00,0,0,0,0,39212,50000,3480,50000,0,0,0,0,0.00,0.00,0.00,0.00
2014-06-21 05:20:00,0,45425,0,0.00,0,0,0,0,16368,50000,10337,50000,0,0,0,0,0.00,0.00,0.00,0.00
2014-06-21 05:30:00,0,48843,0,0.00,0,0,0,0,44633,50000,1886,50000,0,0,0,0,0.00,0.00,0.00,0.00
2014-06-21 05:40:00,0,49401,0,0.00,0,0,0,0,46880,50000,998,50000,0,0,0,0,0.00,0.00,0.00,0.00
2014-06-21 05:50:00,0,48208,0,0.00,0,0,0,0,42315,50000,2906,49803,0,0,0,0,0.00,0.00,0.00,0.00
2014-06-21 06:00:00,0,49612,0,0.00,0,0,0,0,47452,50000,805,50000,0,0,0,0,0.00,0.00,0.00,0.00
2014-06-21 06:10:00,2,46746,0,0.00,2,2,0,2,42078,50000,2879,46161,0,0,0,0,0.00,0.00,0.00,0.00
2014-06-21 06:20:00,2,48609,0,0.00,2,2,0,2,41684,50000,2486,50000,0,0,0,0,0.00,0.00,0.00,0.00
2014-06-21 06:30:00,2,50000,0,0.00,0,2,1,2,50000,50000,0,50000,0,0,0,0,0.00,0.00,0.00,0.00
2014-06-21 06:40:00,2,49883,0,0.00,2,2,0,2,48828,50000,352,50000,0,0,0,0,0.00,0.00,0.00,0.00
2014-06-21 06:50:00,2,43539,12,0.55,2,2,0,2,22827,50000,10496,50000,0,40,18,0,0.00,2.75,0.92,0.00
2014-06-21 07:00:00,2,31228,59,0.90,2,2,0,2,24055,43406,7278,26844,51,61,4,61,0.05,3.60,1.01,0.50
2014-06-21 07:10:00,2,22443,52,0.81,2,2,0,2,10296,37271,9477,22606,51,52,0,52,0.05,2.25,0.72,0.60
2014-06-21 07:20:00,2,49546,10,0.00,2,2,0,2,45461,50000,1362,50000,0,51,20,0,0.00,0.00,0.00,0.00
2014-06-21 07:30:00,2,31656,37,1.38,2,2,0,2,9572,50000,17528,33170,0,61,30,61,0.00,4.45,1.65,0.85
2014-06-21 07:40:00,2,16232,61,1.91,2,2,0,2,11032,20464,2791,17472,61,61,0,61,0.10,8.95,2.52,0.92
2014-06-21 07:50:00,2,32908,51,0.40,2,2,0,2,16596,50000,13118,31680,51,52,0,51,0.00,1.40,0.49,0.15
2014-06-21 08:00:00,2,15252,58,0.86,2,2,0,2,6586,31852,7962,14110,52,61,4,61,0.55,1.10,0.18,0.85
2014-06-21 08:10:00,2,4413,55,8.75,2,2,0,2,2873,5618,801,4678,52,62,4,52,1.40,34.25,10.59,2.65
2014-06-21 08:20:00,2,6300,62,19.21,2,2,0,2,3979,9259,1769,6287,62,62,0,62,10.55,29.05,6.12,18.68
2014-06-21 08:30:00,0,10326,61,6.22,0,2,1,0,6714,15337,2860,10706,61,62,0,61,2.00,12.50,2.88,5.82
2014-06-21 08:40:00,0,3954,55,4.34,0,0,0,0,3255,5365,598,3773,52,61,4,53,2.05,7.20,1.88,3.83
2014-06-21 08:50:00,0,3242,53,11.72,0,0,0,0,2742,4002,365,3226,53,53,0,53,7.85,14.95,2.18,12.28
2014-06-21 09:00:00,0,3933,53,7.86,0,0,0,0,3549,4432,291,3823,53,53,0,53,5.45,13.55,2.43,6.97
2014-06-21 09:10:00,0,4788,52,2.33,0,0,0,0,3534,6502,808,4970,52,53,0,52,1.60,4.40,0.80,2.08
2014-06-21 09:20:00,0,4862,52,0.52,0,0,0,0,3374,5687,859,5306,51,52,0,52,0.15,1.55,0.45,0.30
2014-06-21 09:30:00,0,6209,51,0.59,0,0,0,0,4191,7408,1021,6655,51,52,0,51,0.15,1.00,0.30,0.55
2014-06-21 09:40:00,0,3350,52,2.06,0,0,0,0,2833,3924,359,3258,52,52,0,52,1.10,4.20,1.02,1.58
2014-06-21 09:50:00,0,2759,52,3.42,0,0,0,0,2133,3240,348,2778,52,53,0,52,1.95,4.65,0.90,3.47
2014-06-21 10:00:00,0,3564,52,1.17,0,0,0,0,3103,4347,385,3402,52,52,0,52,0.30,2.05,0.59,1.33
2014-06-21 10:10:00,0,3506,22,0.04,0,0,0,0,2010,4727,967,3749,10,51,19,10,0.00,0.25,0.08,0.00
2014-06-21 10:20:00,0,2205,10,0.00,0,0,0,0,1398,3734,709,1948,10,10,0,10,0.00,0.00,0.00,0.00
2014-06-21 10:30:00,0,5872,10,0.00,0,0,0,0,1628,10183,3483,4898,10,10,0,10,0.00,0.00,0.00,0.00
2014-06-21 10:40:00,0,11465,10,0.00,0,0,0,0,7594,13611,1849,12318,10,10,0,10,0.00,0.00,0.00,0.00
2014-06-21 10:50:00,0,13328,2,0.00,0,0,0,0,6868,19104,4152,14179,0,10,4,0,0.00,0.00,0.00,0.00
2014-06-21 11:00:00,0,21491,0,0.00,0,0,0,0,12490,28711,5315,21642,0,0,0,0,0.00,0.00,0.00,0.00
2014-06-21 11:10:00,0,8866,34,0.76,0,0,0,0,5995,13146,1910,8407,0,52,23,46,0.00,2.20,0.69,0.80
2014-06-21 11:20:00,0,7734,52,1.82,0,0,0,0,5749,9421,1196,8048,52,52,0,52,1.40,2.60,0.35,1.68
2014-06-21 11:30:00,0,10950,52,1.66,0,0,0,0,7993,16332,2469,10370,52,52,0,52,0.80,3.10,0.64,1.53
2014-06-21 11:40:00,0,8386,52,1.76,0,2,1,0,7438,10462,918,8176,52,52,0,52,0.90,2.30,0.43,1.82
2014-06-21 11:50:00,1,12576,52,0.68,0,2,1,0,8550,17410,3123,12995,52,52,0,52,0.25,1.15,0.32,0.75
2014-06-21 12:00:00,0,29332,46,0.15,0,2,1,0,16498,50000,11421,26968,0,51,15,51,0.00,0.40,0.15,0.10
2014-06-21 12:10:00,0,49901,0,0.00,0,0,0,0,49012,50000,296,50000,0,0,0,0,0.00,0.00,0.00,0.00
2014-06-21 12:20:00,0,48286,0,0.00,0,0,0,0,39806,50000,3158,50000,0,0,0,0,0.00,0.00,0.00,0.00
2014-06-21 12:30:00,0,49483,0,0.00,0,0,0,0,45363,50000,1382,50000,0,0,0,0,0.00,0.00,0.00,0.00
2014-06-21 12:40:00,0,49992,0,0.00,0,0,0,0,49915,50000,26,50000,0,0,0,0,0.00,0.00,0.00,0.00
2014-06-21 12:50:00,0,49694,0,0.00,0,0,0,0,47323,50000,798,50000,0,0,0,0,0.00,0.00,0.00,0.00
2014-06-21 13:00:00,0,50000,0,0.00,0,0,0,0,50000,50000,0,50000,0,0,0,0,0.00,0.00,0.00,0.00
2014-06-21 13:10:00,0,49921,0,0.00,0,0,0,0,49213,50000,236,50000,0,0,0,0,0.00,0.00,0.00,0.00
2014-06-21 13:20:00,0,50000,0,0.00,0,0,0,0,50000,50000,0,50000,0,0,0,0,0.00,0.00,0.00,0.00
2014-06-21 13:30:00,0,50000,0,0.00,0,0,0,0,50000,50000,0,50000,0,0,0,0,0.00,0.00,0.00,0.00
2014-06-21 13:40:00,0,50000,0,0.00,0,0,0,0,50000,50000,0,50000,0,0,0,0,0.00,0.00,0.00,0.00
2014-06-21 13:50:00,0,50000,0,0.00,0,0,0,0,50000,50000,0,50000,0,0,0,0,0.00,0.00,0.00,0.00
2014-06-21 14:00:00,0,50000,0,0.00,0,0,0,0,50000,50000,0,50000,0,0,0,0,0.00,0.00,0.00,0.00
2014-06-21 14:10:00,0,50000,0,0.00,0,0,0,0,50000,50000,0,50000,0,0,0,0,0.00,0.00,0.00,0.00
2014-06-21 14:20:00,0,50000,0,0.00,0,0,0,0,50000,50000,0,50000,0,0,0,0,0.00,0.00,0.00,0.00
2014-06-21 14:30:00,0,50000,0,0.00,0,0,0,0,50000,50000,0,50000,0,0,0,0,0.00,0.00,0.00,0.00
2014-06-21 14:40:00,0,50000,0,0.00,0,0,0,0,50000,50000,0,50000,0,0,0,0,0.00,0.00,0.00,0.00
2014-06-21 14:50:00,0,50000,0,0.00,0,0,0,0,50000,50000,0,50000,0,0,0,0,0.00,0.00,0.00,0.00
2014-06-21 15:00:00,0,50000,0,0.00,0,0,0,0,50000,50000,0,50000,0,0,0,0,0.00,0.00,0.00,0.00
2014-06-21 15:10:00,0,50000,0,0.00,0,0,0,0,50000,50000,0,50000,0,0,0,0,0.00,0.00,0.00,0.00
2014-06-21 15:20:00,0,50000,0,0.00,0,0,0,0,50000,50000,0,50000,0,0,0,0,0.00,0.00,0.00,0.00
2014-06-21 15:30:00,0,50000,0,0.00,0,0,0,0,50000,50000,0,50000,0,0,0,0,0.00,0.00,0.00,0.00
2014-06-21 15:40:00,0,50000,0,0.00,0,0,0,0,50000,50000,0,50000,0,0,0,0,0.00,0.00,0.00,0.00
2014-06-21 15:50:00,0,50000,0,0.00,0,0,0,0,50000,50000,0,50000,0,0,0,0,0.00,0.00,0.00,0.00
2014-06-21 16:00:00,0,50000,0,0.00,0,0,0,0,50000,50000,0,50000,0,0,0,0,0.00,0.00,0.00,0.00
2014-06-21 16:10:00,0,50000,0,0.00,0,0,0,0,50000,50000,0,50000,0,0,0,0,0.00,0.00,0.00,0.00
2014-06-21 16:20:00,0,49758,0,0.00,0,0,0,0,47582,50000,725,50000,0,0,0,0,0.00,0.00,0.00,0.00
2014-06-21 16:30:00,0,42215,0,0.00,0,0,0,0,20960,50000,11912,50000,0,0,0,0,0.00,0.00,0.00,0.00
2014-06-21 16:40:00,0,15770,0,0.00,0,0,0,0,6367,38329,9016,14354,0,0,0,0,0.00,0.00,0.00,0.00
2014-06-21 16:50:00,0,9075,6,0.00,0,2,1,0,3310,20023,5629,5914,0,10,5,10,0.00,0.00,0.00,0.00
2014-06-21 17:00:00,1,43472,2,0.00,0,2,1,0,17173,50000,11371,50000,0,10,4,0,0.00,0.00,0.00,0.00
2014-06-21 17:10:00,0,50000,0,0.00,0,0,0,0,50000,50000,0,50000,0,0,0,0,0.00,0.00,0.00,0.00
2014-06-21 17:20:00,0,50000,0,0.00,0,0,0,0,50000,50000,0,50000,0,0,0,0,0.00,0.00,0.00,0.00
2014-06-21 17:30:00,0,50000,0,0.00,0,0,0,0,50000,50000,0,50000,0,0,0,0,0.00,0.00,0.00,0.00
2014-06-21 17:40:00,0,50000,0,0.00,0,0,0,0,50000,50000,0,50000,0,0,0,0,0.00,0.00,0.00,0.00
2014-06-21 17:50:00,1,49978,0,0.00,0,2,1,2,49778,50000,67,50000,0,0,0,0,0.00,0.00,0.00,0.00
2014-06-21 18:00:00,0,50000,0,0.00,0,0,0,0,50000,50000,0,50000,0,0,0,0,0.00,0.00,0.00,0.00
2014-06-21 18:10:00,1,50000,0,0.00,0,2,1,2,50000,50000,0,50000,0,0,0,0,0.00,0.00,0.00,0.00
2014-06-21 18:20:00,2,50000,0,0.00,2,2,0,2,50000,50000,0,50000,0,0,0,0,0.00,0.00,0.00,0.00
2014-06-21 18:30:00,1,50000,0,0.00,0,2,1,2,50000,50000,0,50000,0,0,0,0,0.00,0.00,0.00,0.00
2014-06-21 18:40:00,0,48428,34,0.14,0,0,0,0,34285,50000,4714,50000,0,61,28,51,0.00,1.10,0.33,0.00
2014-06-21 18:50:00,1,30659,46,1.79,0,2,1,2,8151,50000,16740,30480,0,61,23,56,0.00,9.50,2.85,0.68
2014-06-21 19:00:00,2,50000,0,0.00,2,2,0,2,50000,50000,0,50000,0,0,0,0,0.00,0.00,0.00,0.00
2014-06-21 19:10:00,1,49987,0,0.00,0,2,1,2,49866,50000,40,50000,0,0,0,0,0.00,0.00,0.00,0.00
2014-06-21 19:20:00,0,50000,0,0.00,0,0,0,0,50000,50000,0,50000,0,0,0,0,0.00,0.00,0.00,0.00
2014-06-21 19:30:00,0,49953,0,0.00,0,0,0,0,49526,50000,142,50000,0,0,0,0,0.00,0.00,0.00,0.00
2014-06-21 19:40:00,0,50000,0,0.00,0,0,0,0,50000,50000,0,50000,0,0,0,0,0.00,0.00,0.00,0.00
2014-06-21 19:50:00,0,50000,0,0.00,0,0,0,0,50000,50000,0,50000,0,0,0,0,0.00,0.00,0.00,0.00
2014-06-21 20:00:00,0,50000,0,0.00,0,0,0,0,50000,50000,0,50000,0,0,0,0,0.00,0.00,0.00,0.00
2014-06-21 20:10:00,0,50000,0,0.00,0,0,0,0,50000,50000,0,50000,0,0,0,0,0.00,0.00,0.00,0.00
2014-06-21 20:20:00,0,50000,0,0.00,0,0,0,0,50000,50000,0,50000,0,0,0,0,0.00,0.00,0.00,0.00
2014-06-21 20:30:00,0,49925,0,0.00,0,0,0,0,49253,50000,224,50000,0,0,0,0,0.00,0.00,0.00,0.00
2014-06-21 20:40:00,0,50000,0,0.00,0,0,0,0,50000,50000,0,50000,0,0,0,0,0.00,0.00,0.00,0.00
2014-06-21 20:50:00,0,49883,0,0.00,0,0,0,0,49193,50000,254,50000,0,0,0,0,0.00,0.00,0.00,0.00
2014-06-21 21:00:00,0,49739,0,0.00,0,0,0,0,47393,50000,782,50000,0,0,0,0,0.00,0.00,0.00,0.00
2014-06-21 21:10:00,0,49916,0,0.00,0,0,0,0,49157,50000,253,50000,0,0,0,0,0.00,0.00,0.00,0.00
2014-06-21 21:20:00,0,49909,0,0.00,0,0,0,0,49086,50000,274,50000,0,0,0,0,0.00,0.00,0.00,0.00
2014-06-21 21:30:00,0,49897,0,0.00,0,0,0,0,48974,50000,308,50000,0,0,0,0,0.00,0.00,0.00,0.00
2014-06-21 21:40:00,0,50000,0,0.00,0,0,0,0,50000,50000,0,50000,0,0,0,0,0.00,0.00,0.00,0.00
2014-06-21 21:50:00,0,35702,0,0.00,0,0,0,0,14418,50000,14809,39847,0,0,0,0,0.00,0.00,0.00,0.00
2014-06-21 22:00:00,0,42418,0,0.00,0,0,0,0,23696,50000,10161,48227,0,0,0,0,0.00,0.00,0.00,0.00
2014-06-21 22:10:00,0,48603,0,0.00,0,0,0,0,43327,50000,2169,49804,0,0,0,0,0.00,0.00,0.00,0.00
2014-06-21 22:20:00,0,49696,0,0.00,0,0,0,0,46964,50000,911,50000,0,0,0,0,0.00,0.00,0.00,0.00
2014-06-21 22:30:00,0,50000,0,0.00,0,0,0,0,50000,50000,0,50000,0,0,0,0,0.00,0.00,0.00,0.00
2014-06-21 22:40:00,0,49988,0,0.00,0,0,0,0,49883,50000,35,50000,0,0,0,0,0.00,0.00,0.00,0.00
2014-06-21 22:50:00,0,50000,0,0.00,0,0,0,0,50000,50000,0,50000,0,0,0,0,0.00,0.00,0.00,0.00
2014-06-21 23:00:00,0,50000,0,0.00,0,0,0,0,50000,50000,0,50000,0,0,0,0,0.00,0.00,0.00,0.00
2014-06-21 23:10:00,0,49758,0,0.00,0,0,0,0,47585,50000,724,50000,0,0,0,0,0.00,0.00,0.00,0.00
2014-06-21 23:20:00,0,50000,0,0.00,0,0,0,0,50000,50000,0,50000,0,0,0,0,0.00,0.00,0.00,0.00
2014-06-21 23:30:00,0,49677,0,0.00,0,0,0,0,47724,50000,711,50000,0,0,0,0,0.00,0.00,0.00,0.00
2014-06-21 23:40:00,0,50000,0,0.00,0,0,0,0,50000,50000,0,50000,0,0,0,0,0.00,0.00,0.00,0.00
2014-06-21 23:50:00,0,49936,0,0.00,0,0,0,0,49363,50000,191,50000,0,0,0,0,0.00,0.00,0.00,0.00
